Location: Unspecified
(0.0000°N, 0.0000°E)
Time: 07:11:41
(UTC+00:00)

Vanguard 2 - Pass Details

Date: 24 September 2019
Orbit: 554 x 2937 km, 32.9° (Epoch: 14 October)

Event Time Altitude Azimuth Distance (km) Brightness Sun altitude
Rises 08:34:37 0° 327° (NNW) 3,523 10.7 40.6°
Reaches altitude 10° 08:38:28 10° 348° (NNW) 2,237 9.9 41.6°
Maximum altitude 08:41:29 16° 26° (NNE) 1,669 9.7 42.3°
Drops below altitude 10° 08:44:06 10° 65° (ENE) 1,894 10.5 43.0°
Sets 08:46:56 0° 89° (E) 2,718 11.2 43.7°
